Theta_e
303 303 303 303 304 304 305 305 305 305 304 304 304 305 305 305 308 313 318 319 319 310 310 311 310 307 307 310 305 304 304 303 303 300 300 297 296 295 294 294 293 293 292 290 289 288 286 298 299 294 300 303 301 303
304 304 304 304 303 304 304 304 304 304 304 304 305 305 305 307 308 311 316 319 320 314 310 314 313 314 312 311 310 307 308 306 307 303 300 297 292 290 295 293 296 292 297 296 295 296 299 301 303 304 304 303 304 303
303 303 303 303 303 304 303 303 303 303 303 304 304 305 306 307 309 313 318 318 319 313 310 312 309 313 316 315 316 308 307 308 305 307 304 301 291 299 290 295 295 297 297 296 294 298 299 301 303 304 305 303 304 304
303 303 303 303 303 302 302 303 303 303 304 304 304 305 306 308 309 312 317 315 317 310 296 306 312 310 313 315 315 312 310 307 306 308 303 295 296 298 297 297 297 299 298 296 296 299 300 300 302 303 304 305 304 304
302 302 302 302 303 303 303 303 303 303 304 304 305 306 307 308 308 314 313 311 314 312 298 305 309 309 311 312 310 311 309 308 307 304 296 299 298 298 296 297 297 299 297 296 296 298 299 300 303 304 303 303 303 300
302 302 302 302 303 303 303 303 304 304 305 306 306 308 307 307 309 318 309 310 309 315 309 297 306 305 309 310 309 308 309 308 307 302 294 300 298 301 292 296 296 299 300 301 299 303 303 303 300 301 299 298 297 296
302 302 303 303 303 303 303 304 306 305 306 306 306 305 305 306 312 309 306 308 305 310 306 296 300 303 304 307 305 307 307 305 306 299 294 297 297 301 292 295 294 296 298 300 302 302 299 295 293 296 296 295 293 291
301 302 302 303 303 303 303 304 304 305 306 306 306 305 305 305 306 309 308 303 305 306 307 295 295 301 303 298 297 302 300 304 299 296 296 294 296 297 293 290 292 295 297 296 295 297 295 295 294 292 291 291 289 288
301 301 302 302 302 302 302 302 303 304 304 305 304 305 314 309 310 309 301 303 309 307 299 290 294 291 299 294 296 300 300 292 296 294 294 298 291 289 287 288 290 291 292 292 295 294 292 290 289 290 289 289 288 288
301 301 301 301 301 301 301 301 303 303 303 303 310 309 303 306 302 304 307 306 303 300 298 288 295 290 297 295 291 294 294 292 290 292 294 290 286 288 289 290 290 293 295 294 289 287 288 288 289 289 290 291 291 291
301 301 301 301 301 301 301 301 302 303 306 309 305 299 306 302 307 301 296 295 296 291 293 292 295 292 295 292 289 292 289 292 287 291 291 288 285 286 290 290 292 294 294 294 292 291 291 291 291 291 291 291 290 289
301 301 301 301 300 301 300 301 302 306 305 305 306 304 305 301 299 290 288 291 290 288 290 291 292 294 292 297 292 292 288 289 285 293 289 285 285 289 290 290 292 294 294 294 294 293 293 292 291 289 288 287 288 287
300 300 300 300 299 300 300 300 300 300 302 307 303 294 299 292 289 289 285 287 286 288 289 289 288 292 293 295 290 290 286 286 293 286 285 285 288 289 290 291 291 292 292 292 290 289 289 288 288 288 287 287 288 288
298 298 299 299 299 299 299 299 299 301 304 296 292 287 288 287 287 287 289 288 287 288 289 291 288 290 290 290 288 287 285 287 284 282 283 285 287 288 290 290 289 287 286 288 288 288 286 286 286 285 285 285 285 285
297 297 298 297 298 298 298 298 299 301 296 290 291 284 284 285 286 285 286 287 287 289 291 291 290 292 287 286 287 287 283 282 284 284 285 286 287 289 289 287 287 286 286 287 288 286 285 285 286 286 286 284 283 282
297 296 294 297 297 297 297 299 299 298 292 289 287 284 286 285 285 285 285 285 289 288 290 291 287 287 285 287 285 284 284 283 284 288 287 286 287 289 288 288 288 288 288 288 288 287 285 284 284 284 283 281 281 281
296 292 294 296 296 296 296 297 295 288 288 287 285 286 286 285 285 285 286 286 288 287 285 288 285 283 286 284 283 286 285 287 287 285 287 289 288 287 289 288 287 287 288 287 286 285 284 283 282 281 279 279 280 280
292 294 295 296 296 296 293 293 291 288 283 285 285 284 286 286 285 285 286 287 289 288 287 285 288 283 284 282 284 287 286 287 288 287 288 289 289 288 287 288 288 287 286 284 283 282 281 280 280 279 278 278 278 278
293 293 294 294 295 294 290 289 291 284 284 286 286 286 286 286 287 287 286 286 289 291 288 287 285 285 286 288 287 285 286 289 287 285 284 285 287 287 287 286 285 284 282 281 281 280 280 278 277 277 276 276 275 276
292 293 292 293 296 292 286 286 292 287 283 285 286 284 285 285 286 286 286 287 288 289 286 285 285 285 287 286 288 290 291 291 288 284 282 283 285 285 285 284 282 281 280 279 277 276 277 277 276 275 274 273 273 272
293 292 291 294 291 289 286 286 285 286 285 283 285 285 284 286 285 285 285 287 287 283 283 282 282 283 283 285 287 289 289 290 288 287 284 281 283 282 281 280 279 278 278 277 276 275 274 274 273 272 272 272 271 272
290 291 290 289 286 287 286 286 286 287 285 284 284 285 283 282 283 283 285 286 282 281 282 282 284 285 284 282 283 285 285 285 284 282 281 281 279 278 277 277 278 275 274 273 273 272 272 271 270 270 270 270 270 271
290 290 288 286 282 283 281 287 284 284 281 282 284 281 282 282 284 286 283 283 282 283 284 282 281 282 280 280 281 281 282 282 281 280 279 278 277 276 275 274 274 273 272 271 271 271 270 266 269 268 269 269 269 269
288 282 279 279 281 277 281 279 283 282 283 281 281 279 279 281 283 282 279 280 280 281 282 281 281 279 279 278 277 277 278 278 277 277 278 277 275 274 273 272 271 270 270 270 269 269 268 268 266 268 267 267 267 267
280 277 280 276 279 278 276 276 278 280 277 277 277 277 278 281 278 277 276 277 277 277 279 281 281 279 276 275 275 275 276 277 275 273 273 274 273 272 271 271 270 269 269 269 267 267 266 266 266 266 266 266 265 265
274 277 277 277 277 278 276 276 275 276 277 277 277 279 280 279 274 272 273 275 276 275 275 276 277 275 273 275 274 273 272 275 274 271 271 271 271 271 269 269 269 268 268 267 266 265 265 265 264 264 264 265 264 264
274 275 278 281 279 279 278 278 279 278 276 276 279 278 278 273 270 272 276 274 275 274 274 274 275 273 272 271 271 271 272 272 272 271 270 269 269 269 268 267 265 266 267 266 265 264 263 263 263 263 264 265 265 264
277 278 275 277 279 280 277 277 277 277 278 280 280 274 272 271 271 273 273 275 274 273 272 271 271 271 270 270 271 271 270 270 269 269 269 269 269 268 267 267 266 264 264 264 263 263 263 263 263 264 264 263 262 263
278 280 279 273 276 278 277 277 277 278 278 279 277 273 270 270 270 271 272 273 275 274 272 270 270 270 269 268 268 268 269 270 269 266 265 267 267 267 267 266 266 266 265 264 263 263 264 264 264 262 261 261 261 261
277 280 277 274 273 275 278 279 279 278 277 275 274 272 270 269 269 271 272 271 270 268 267 267 267 269 267 269 267 266 266 266 266 265 265 264 265 266 265 265 265 265 264 263 262 262 262 262 262 262 261 261 261 260
279 280 277 277 276 278 277 277 280 278 275 272 271 271 268 268 269 269 268 268 268 268 269 268 266 267 267 266 267 266 265 266 263 263 263 264 264 264 265 264 264 264 263 262 261 261 260 260 261 260 260 258 257 257
277 274 275 274 275 275 275 276 274 276 275 272 268 268 268 268 265 267 266 268 268 267 261 265 267 266 265 266 264 265 258 264 264 263 262 263 264 265 265 264 263 262 262 261 261 260 259 259 259 259 258 258 257 256
274 274 274 275 274 274 271 271 270 270 270 269 267 267 266 267 263 266 266 266 266 266 265 266 266 266 264 262 264 265 260 264 261 261 260 260 259 260 262 263 263 262 260 260 261 260 258 258 258 258 258 256 256 255
Wind_Speed
18 19 24 21 22 23 25 25 23 22 25 23 25 22 21 21 23 9 1 4 1 4 5 0 2 6 6 6 7 9 7 2 2 2 2 3 2 4 3 2 4 6 7 4 3 3 5 5 6 3 5 2 3 3
21 29 27 26 21 20 20 21 21 22 23 24 23 22 23 23 23 14 3 1 5 7 5 6 8 7 4 4 6 11 2 6 6 4 1 3 3 1 1 3 3 4 3 1 6 1 4 6 6 3 5 7 6 5
25 27 26 23 19 18 18 20 18 19 21 21 21 22 22 24 21 7 4 3 5 5 5 4 4 5 8 5 5 5 2 5 5 4 5 3 4 4 4 4 3 5 4 3 2 3 5 6 7 8 8 10 10 8
23 22 22 21 18 16 15 14 14 16 18 20 19 21 22 23 11 3 4 1 5 6 5 4 3 4 9 3 1 2 8 8 7 2 3 3 3 4 3 1 3 3 7 5 5 7 5 4 4 7 10 7 6 4
23 22 21 20 19 15 13 13 14 15 15 18 21 22 23 18 11 8 6 4 3 2 5 5 4 7 10 7 10 10 11 8 3 3 3 2 3 4 2 0 2 2 2 3 2 5 5 6 10 9 8 8 5 4
22 21 19 20 18 17 17 15 15 17 20 22 24 23 24 23 17 4 4 5 1 1 5 5 2 5 8 9 13 12 7 5 3 4 3 3 3 1 4 4 5 5 5 5 4 9 6 7 10 10 9 9 11 14
21 20 20 21 21 20 17 17 17 17 22 24 24 21 13 11 5 1 4 5 3 2 4 5 3 4 6 4 4 5 6 4 4 4 3 3 2 2 3 3 5 5 5 5 6 8 5 13 8 12 14 17 19 18
17 21 20 21 26 20 22 20 21 22 20 23 21 20 21 23 17 5 5 8 4 2 3 5 3 2 7 3 3 4 3 2 6 3 2 2 2 1 2 5 5 7 5 6 8 9 11 11 13 14 14 15 16 11
16 20 22 24 14 18 17 15 16 20 19 19 18 14 5 6 4 4 10 6 2 3 4 4 5 4 2 3 2 2 2 4 1 2 2 2 2 2 3 4 6 7 4 3 10 11 12 13 14 14 14 12 11 7
20 21 20 16 15 18 15 12 11 11 9 8 3 5 5 3 6 5 2 3 6 6 6 5 1 3 1 1 2 2 3 2 3 2 2 2 2 4 3 3 3 6 6 10 11 11 10 10 9 10 10 8 6 5
19 19 18 15 16 15 13 12 10 5 4 4 5 4 1 4 3 4 4 4 3 4 4 3 3 4 3 2 3 2 3 1 3 3 3 3 3 4 4 4 5 6 7 11 13 13 12 11 8 6 4 5 4 4
20 18 18 19 17 19 22 16 5 5 3 4 7 5 3 4 3 7 3 1 4 3 1 2 3 3 2 1 3 1 3 1 3 4 2 4 4 7 7 8 9 11 13 13 12 10 8 7 6 6 5 5 5 4
24 23 21 19 18 19 17 16 16 12 2 3 6 6 3 4 6 2 4 2 3 2 2 2 3 2 3 2 4 2 3 2 4 2 2 3 7 7 8 9 9 8 8 8 8 8 7 8 8 7 6 7 4 5
23 23 22 19 17 17 17 14 11 4 6 6 4 6 4 3 4 3 3 3 2 2 3 3 3 2 1 3 1 3 2 2 4 4 3 5 8 9 10 8 9 8 5 6 8 7 7 7 7 6 5 4 5 8
19 20 17 22 13 11 10 10 10 6 6 6 4 4 4 1 3 2 2 2 2 1 1 3 4 2 3 3 2 3 4 4 2 2 3 5 9 11 10 7 8 7 4 5 6 6 5 5 6 8 8 8 8 7
6 8 14 20 15 14 10 6 7 4 5 5 6 4 1 3 2 2 3 3 2 1 1 2 3 2 2 2 3 3 3 2 3 3 5 8 10 10 9 8 7 6 6 6 6 7 7 8 7 6 5 7 6 6
13 6 19 16 9 7 16 7 5 8 5 4 4 3 2 4 3 2 2 2 2 2 2 1 2 3 2 2 3 1 2 3 5 6 6 9 10 9 7 7 5 6 7 7 7 7 7 5 4 5 7 9 9 7
6 7 14 12 4 4 5 6 5 5 6 4 3 3 2 3 2 3 2 3 2 2 1 2 3 2 2 3 3 3 3 5 7 7 6 6 5 5 6 8 8 8 8 8 7 7 6 5 5 5 7 9 9 9
8 12 16 14 5 5 5 6 5 5 5 2 2 2 3 3 3 3 2 2 3 2 3 1 2 2 2 2 3 4 6 7 7 5 5 6 6 8 9 9 9 8 8 7 6 5 5 6 6 6 6 7 7 8
6 18 21 15 7 5 6 4 2 5 3 3 3 3 3 3 1 1 2 3 3 1 3 3 3 3 3 3 3 3 6 7 9 8 6 5 6 8 8 7 6 7 6 6 6 6 4 4 5 6 6 7 7 8
7 9 12 7 5 8 6 3 4 3 3 3 1 2 3 1 2 3 3 3 3 4 3 3 3 4 4 4 4 3 5 5 4 3 5 8 6 6 6 6 6 5 5 4 4 5 5 5 5 5 6 6 7 7
5 11 4 7 6 5 5 6 3 2 3 2 2 2 3 2 2 2 3 2 4 3 3 2 2 2 4 7 7 8 8 10 11 10 12 10 7 6 5 4 4 5 5 5 4 4 4 4 5 5 5 6 7 7
5 5 5 6 6 6 3 4 3 4 3 2 1 2 2 2 2 2 2 3 4 5 4 4 6 8 8 8 9 10 9 9 8 8 7 7 7 7 6 6 5 4 4 4 4 3 4 4 4 5 5 6 7 6
4 7 7 6 7 4 3 4 2 2 2 1 1 4 3 2 2 2 3 4 5 6 5 4 3 5 6 7 7 7 7 7 8 8 6 6 6 6 5 5 5 4 4 3 3 3 3 4 5 5 6 7 7 7
7 9 5 6 4 4 5 4 4 3 3 3 2 3 2 1 1 2 3 3 6 7 7 6 6 6 5 5 5 6 9 5 6 7 6 6 6 5 5 4 4 4 4 4 4 5 5 5 5 6 7 6 8 9
8 8 5 4 3 4 3 3 3 4 3 2 3 2 0 1 3 4 3 5 5 6 7 7 4 5 6 6 5 5 5 5 4 6 5 5 5 4 4 3 2 3 5 4 5 6 7 6 7 8 8 8 7 9
6 5 4 3 2 2 2 2 1 2 3 3 2 1 0 2 4 3 3 4 4 4 6 6 6 6 6 5 5 6 6 7 7 7 6 6 6 6 5 4 4 4 5 6 5 6 7 8 7 7 8 7 7 8
4 4 4 4 2 2 3 2 3 4 3 3 1 3 2 3 3 3 4 4 4 4 6 7 7 6 6 6 5 5 6 6 6 6 5 5 4 4 4 3 3 4 4 4 5 6 6 6 7 8 8 8 7 6
4 3 1 3 2 4 4 3 3 3 4 3 1 3 3 4 3 3 4 4 3 3 4 5 5 5 6 6 6 5 5 4 4 4 4 3 2 2 4 4 4 4 4 5 6 6 8 7 6 6 7 6 5 5
4 3 2 2 2 3 3 4 3 3 4 4 4 4 4 3 4 4 4 5 5 5 4 4 4 3 4 3 4 5 5 5 6 5 4 4 4 5 4 4 5 5 5 5 6 7 5 4 5 3 4 4 4 5
2 2 2 2 2 3 3 4 2 4 3 4 4 4 4 4 3 5 5 4 4 3 3 4 4 4 4 4 4 3 3 4 4 4 3 4 4 4 4 5 4 4 4 5 6 5 6 6 5 5 5 6 5 5
4 4 3 2 2 3 4 3 2 2 3 3 3 2 3 2 3 3 4 4 3 4 4 3 3 4 3 2 1 1 1 2 3 4 6 4 5 5 5 5 4 4 5 6 5 5 6 6 5 5 6 6 6 7
1 2 3 3 1 1 3 2 3 2 3 3 3 2 3 3 4 3 2 4 4 4 4 3 3 2 2 3 4 3 3 3 5 7 7 6 6 6 6 5 4 5 6 6 6 5 6 7 6 6 6 6 6 7
Wind_Direction
160 193 183 177 155 138 141 147 149 157 169 171 176 173 174 186 180 201 79 338 359 88 111 58 138 152 138 180 151 138 142 166 127 151 166 164 147 178 198 130 182 180 164 181 139 204 268 153 148 232 17 347 326 289
129 140 151 137 127 133 139 150 160 166 170 175 171 171 177 181 184 206 120 287 48 69 78 76 71 41 28 49 123 175 36 146 161 115 140 108 136 142 131 191 192 220 236 212 220 228 101 197 287 8 334 303 304 293
100 105 113 124 132 138 145 154 159 166 169 170 169 170 175 183 187 224 129 136 81 98 103 150 87 31 37 11 324 142 194 136 157 18 135 114 134 163 163 217 162 210 172 233 237 144 241 259 286 292 303 292 297 281
107 106 107 108 114 122 131 141 152 162 165 166 164 169 175 174 163 107 105 72 76 80 110 90 352 37 346 336 236 4 117 95 108 126 106 133 123 233 176 83 229 26 168 197 249 286 293 91 32 358 338 334 305 328
93 94 100 105 110 112 117 132 146 150 153 155 158 157 155 138 112 93 75 45 62 18 132 123 141 30 28 71 91 108 125 122 132 102 93 104 107 141 65 263 211 209 56 219 279 17 330 336 358 348 330 349 17 67
88 91 91 92 87 84 94 96 105 126 143 145 141 135 132 138 146 157 62 3 319 298 118 126 77 24 30 63 68 63 57 63 66 85 98 87 73 214 144 182 88 55 27 334 306 327 330 355 34 26 52 63 77 87
82 82 80 73 74 74 79 75 84 93 118 122 114 107 121 144 108 110 103 117 197 110 112 107 114 47 351 29 47 33 36 62 51 94 70 114 103 181 169 181 43 4 359 10 6 329 150 38 65 67 78 79 82 84
79 82 78 71 61 63 68 73 80 81 99 107 110 109 105 101 126 74 45 61 18 141 79 113 87 133 4 50 75 357 51 46 33 92 103 96 104 0 164 58 2 8 342 49 47 61 87 90 84 88 99 101 88 80
78 76 70 69 69 64 64 68 86 97 101 112 120 135 106 43 54 49 352 341 50 8 101 79 123 142 8 72 51 81 28 71 310 99 81 179 135 169 68 359 2 356 344 96 83 83 96 102 105 100 99 97 107 139
73 83 77 67 49 46 46 44 55 79 106 136 102 46 70 36 313 287 39 30 29 21 34 79 6 101 328 115 75 86 35 102 130 82 136 74 84 92 62 38 353 347 122 120 111 111 104 94 105 125 139 148 136 84
72 72 76 71 57 48 36 29 28 89 49 42 57 64 103 340 62 32 65 45 1 54 34 68 65 117 17 130 118 356 118 90 144 126 214 156 148 145 146 116 74 76 105 104 116 129 138 139 139 131 88 54 27 12
71 68 65 65 58 53 41 28 27 62 40 83 105 91 68 31 68 81 43 49 34 94 77 96 86 81 98 127 103 94 95 149 142 134 186 190 109 140 140 121 112 109 106 111 114 115 101 73 56 62 55 48 40 26
62 58 56 51 43 51 45 43 48 84 91 64 56 60 23 319 58 74 146 108 108 118 118 143 97 74 131 79 79 106 136 126 130 178 207 64 124 119 123 128 115 102 97 104 98 85 77 71 61 51 57 45 5 46
63 61 54 42 39 45 40 27 13 20 47 57 51 53 34 34 55 41 51 73 87 87 95 102 85 71 62 81 76 125 74 155 196 214 169 144 141 132 148 130 132 110 81 92 89 84 75 76 81 73 61 56 44 32
60 51 48 24 14 37 44 41 27 46 51 61 35 72 61 80 46 44 43 86 45 61 67 102 77 63 53 102 52 126 164 207 244 163 125 136 143 148 147 134 122 117 125 112 101 95 85 79 84 77 57 38 28 18
44 53 17 358 8 15 15 43 36 61 60 58 52 89 71 90 55 45 35 54 11 52 40 36 84 96 84 100 169 191 195 195 144 137 128 138 152 147 143 127 119 109 110 101 90 87 76 65 60 55 47 29 7 16
58 43 342 344 342 344 30 64 47 51 56 50 52 17 23 63 63 61 51 39 331 50 70 96 121 74 119 140 151 218 77 97 116 114 132 146 151 164 136 120 122 113 109 101 94 79 78 77 70 43 22 12 356 358
49 349 356 357 360 38 45 34 75 70 63 35 67 21 38 26 67 52 46 9 10 75 41 74 129 139 166 153 153 130 113 104 108 119 127 136 126 122 139 139 125 114 106 97 94 89 71 47 39 29 9 359 338 348
46 20 13 14 39 78 60 42 20 83 57 49 66 37 50 62 41 53 55 44 56 53 129 141 94 77 78 54 89 115 133 136 126 96 76 73 94 115 120 112 112 106 95 84 75 65 69 54 37 17 6 351 342 341
16 21 5 13 22 73 68 39 2 69 69 52 35 38 50 50 27 353 26 34 30 346 56 39 45 41 24 41 20 127 140 134 134 124 110 105 105 110 110 110 102 108 106 105 81 46 46 46 31 11 6 347 338 339
28 351 356 18 51 57 73 21 65 54 91 69 35 46 61 30 40 30 23 337 42 32 54 30 46 65 52 47 44 87 112 146 128 146 149 142 124 114 105 95 93 85 82 66 53 53 32 23 4 355 346 343 342 330
357 342 37 25 70 64 73 22 54 85 69 77 64 38 56 53 46 37 313 47 59 40 23 9 53 93 74 54 56 63 84 92 93 88 92 119 125 118 102 84 93 83 69 49 37 30 13 9 0 342 337 342 333 335
342 20 45 28 73 48 43 346 61 19 75 74 150 107 96 80 37 316 67 54 72 20 10 44 52 72 88 81 73 65 68 92 95 96 97 96 96 95 92 76 62 68 71 55 16 10 6 345 351 334 343 340 340 338
23 47 39 45 39 73 26 43 40 68 87 58 121 118 79 50 345 48 74 62 27 5 23 76 95 100 85 63 60 57 58 77 90 84 84 105 103 90 86 86 77 62 36 17 14 359 350 342 338 349 348 336 344 336
61 14 23 41 32 59 50 33 28 42 61 30 43 92 93 308 92 76 62 54 26 18 11 26 46 60 86 86 76 61 35 54 84 89 57 74 101 113 102 94 84 59 18 357 1 343 348 346 344 339 332 333 338 333
69 22 41 31 30 34 32 59 41 32 27 55 55 66 248 89 76 60 55 11 23 15 7 2 46 77 60 41 65 55 37 25 88 94 76 59 57 72 78 64 50 87 22 1 344 340 336 333 328 326 323 329 331 325
66 47 34 31 36 82 108 98 96 29 35 42 63 86 182 80 85 78 80 23 25 27 22 22 42 65 76 73 66 52 50 47 58 82 92 77 67 54 45 36 27 16 346 354 335 324 318 316 316 318 318 322 330 334
63 36 45 359 63 20 60 54 40 38 38 9 282 46 58 36 87 61 43 54 63 71 68 59 53 57 63 61 62 79 78 82 91 99 106 97 78 72 54 40 34 0 333 340 328 314 312 309 308 311 318 322 324 329
50 10 353 39 45 57 41 30 45 47 355 312 37 84 89 60 34 16 29 24 32 66 74 76 70 72 74 71 62 49 32 20 20 37 32 26 16 71 17 356 344 347 339 329 324 322 317 310 322 320 321 318 322 311
30 347 60 57 58 67 60 13 39 71 41 52 84 107 98 77 38 13 37 45 53 56 47 43 30 37 52 55 78 72 53 38 33 20 359 355 351 344 326 327 326 335 329 324 326 326 331 329 317 295 310 314 322 327
332 327 77 46 79 61 12 333 120 100 85 66 35 64 90 117 109 44 38 25 32 42 65 69 73 43 53 49 39 36 59 63 27 3 339 315 309 302 311 320 316 316 315 313 317 318 328 314 316 315 316 323 326 318
14 29 356 25 93 54 20 25 11 61 92 97 82 95 128 125 94 78 17 345 49 55 43 17 49 62 48 48 26 12 347 334 344 343 320 303 301 317 315 311 305 296 304 306 305 304 309 311 307 313 312 314 324 323
357 13 29 351 340 108 53 358 44 98 71 77 72 51 51 43 86 80 94 25 28 31 29 28 30 21 5 327 316 322 291 300 313 308 309 292 288 303 304 298 298 298 299 298 299 298 298 302 299 307 305 309 313 319